カタログに戻る

CZ-6A DEB

運用中SSO
NORAD 56247·DEBRIS·🇨🇳 China

打ち上げ Nov 11, 2022 から Taiyuan Satellite Launch Center

Loading…

次のパス (今後24時間)

TLE

最新Source: Space-Track

元期: Sep 14, 2026, 10:20 UTC

1 56247U 22151ABP 26257.43110968  .00004351  00000-0  60786-3 0  9992
2 56247  98.4296 315.3454 0110438 282.4271  76.4595 14.74068317190942

AllMySatでCZ-6A DEBをリアルタイム追跡

Download on the App Store